Regional Weather Roundup
Issued by NWS

Home | Current Version | Previous Version | Graphics & Text | Print | Product List | Glossary On
Versions: 1 2 3 4 5 6 7 8 9 10 11 12 13 14 15 16 17 18 19 20 21 22 23 24 25 26 27 28 29 30 31 32 33 34 35 36 37 38 39 40 41 42 43 44 45 46 47 48 49 50
000
ASUS43 KMPX 251901
RWRMN
WEATHER ROUNDUP FOR MINNESOTA
NATIONAL WEATHER SERVICE TWIN CITIES/CHANHASSEN MN
200 PM CDT WED MAY 25 2016


NOTE: "FAIR" INDICATES FEW OR NO CLOUDS BELOW 12,000 FEET WITH NO
SIGNIFICANT WEATHER AND/OR OBSTRUCTIONS TO VISIBILITY. N/A MEANS
CURRENT SKY AND/OR WEATHER CONDITIONS ARE NOT AVAILABLE.

MNZ060>063-068>070-252000-
   Twin Cities Metro

CITY           SKY/WX    TMP DP  RH WIND       PRES   REMARKS
TWIN CITIES    LGT RAIN  72  66  81 E8        29.84S
ST PAUL        PTSUNNY   72  65  78 SE10      29.84F
CRYSTAL        LGT RAIN  70  63  78 NE5       29.84S
BLAINE         CLOUDY    72  68  88 E9        29.84F
EDEN PRAIRIE   LGT RAIN  72  65  78 N3        29.84R
SOUTH ST PAUL  PTSUNNY   73  67  81 E6        29.85S
LAKE ELMO      FAIR      68  64  88 E6        29.87S
$$
MNZ001>005-007-008-013>017-022>024-027-028-252000-
   Northwest Minnesota

CITY           SKY/WX    TMP DP  RH WIND       PRES   REMARKS
BEMIDJI        LGT RAIN  63  58  85 SE14      29.86F
HALLOCK        RAIN      61  57  88 E15G21    29.84R
ROSEAU         LGT RAIN  59  54  82 E16       29.87F
WARROAD        RAIN      57  54  88 NE12      29.90F
THIEF RVR FALL CLOUDY    63  55  77 SE18G26   29.84R
CROOKSTON      RAIN      63  63 100 S10       29.81S
FOSSTON        LGT RAIN  61  55  82 E8        29.82F
DETROIT LAKES  CLOUDY    63  57  82 SE14G30   29.76F
MOORHEAD       HVY RAIN  63  61  94 SE16G24   29.72F
PARK RAPIDS    LGT RAIN  62  57  83 E13       29.81F
MAHNOMEN       LGT RAIN  62  57  86 SE16G25   29.78F
$$
MNZ006-009>011-018-025>026-252000-
   North Central Minnesota

CITY           SKY/WX    TMP DP  RH WIND       PRES   REMARKS
BAUDETTE       CLOUDY    60  57  89 NE7       29.91F
FLAG ISLAND    LGT RAIN  61  54  77 NE5       29.92F
INTL FALLS     CLOUDY    64  54  69 E14       29.94F
WASKISH        CLOUDY    66  57  72 E12G17    29.88F
BIG FORK       CLOUDY    70  54  56 E9G17     29.90F
LONGVILLE      LGT RAIN  61  55  82 E6        29.88F
GRAND RAPIDS   CLOUDY    62  53  72 E8        29.94R
CRANE LAKE     CLOUDY    66  54  63 CALM      29.97F
ORR            CLOUDY    70  52  52 E8        29.92F
COOK           CLOUDY    68  52  56 E7        29.95F
WALKER         LGT RAIN  60  56  89 E6        29.85F
$$
MNZ012-019>021-037-252000-
   Northeast Minnesota

CITY           SKY/WX    TMP DP  RH WIND       PRES   REMARKS
DULUTH         CLOUDY    52  49  89 E14G23    29.96F FOG
ELY            CLOUDY    64  48  55 SE8       29.99F
HIBBING        CLOUDY    64  52  64 E13G23    29.93F
EVELETH        CLOUDY    63  50  63 E8        29.96F
DULUTH HARBOR  CLOUDY    46  45  93 NE23      29.98F FOG
TWO HARBORS    CLOUDY    55  52  88 NE12      29.96F
SILVER BAY     CLOUDY    50  48  93 NE10G16   30.01F
GRAND MARAIS     N/A     45  42  89 E10       30.06F
G MARAIS ARPRT CLOUDY    61  45  55 E12       30.05F
$$
MNZ029>031-032-039>041-046>048-054>057-064-252000-
   West Central Minnesota

CITY           SKY/WX    TMP DP  RH WIND       PRES   REMARKS
FERGUS FALLS   LGT RAIN  63  63 100 SE20G29   29.71R
WHEATON        MOSUNNY   73  64  73 SW20G25   29.73F
MORRIS         CLOUDY    75  61  60 SW22G30   29.75R
ALEXANDRIA     CLOUDY    67  61  81 SE17      29.80F
ELBOW LAKE     LGT RAIN  67  64  90 S21G26    29.75R
WADENA         RAIN      61  59  94 E13G18    29.80S
GLENWOOD       PTSUNNY   68  63  83 SE16      29.80F
APPLETON       MOSUNNY   77  55  47 SW13G20   29.76S
BENSON         PTSUNNY   75  61  60 SW18G25   29.77F
ORTONVILLE     CLOUDY    73  59  60 SW12G17   29.76R
MADISON        MOSUNNY   79  57  47 SW16G26   29.77S
WILLMAR        FAIR      75  66  73 SE17G23   29.82F
$$
MNZ033>034-036-042>043-049>051-058-059-252000-
   Central Minnesota

CITY           SKY/WX    TMP DP  RH WIND       PRES   REMARKS
ST CLOUD       CLOUDY    66  63  90 E8        29.84F
SAUK CENTRE    FAIR      67  62  84 SE14G22   29.82F
PAYNESVILLE    CLOUDY    70  64  82 SE15      29.83F
AITKIN         MIX PCPN  59  54  82 E5        29.89R
PINE RIVER     LGT RAIN  59  59 100 E10G16    29.90F
BRAINERD       LGT RAIN  60  59  96 E6        29.87F FOG
STAPLES        CLOUDY    61  59  94 E8        29.82F
LONG PRAIRIE   CLOUDY    63  59  88 E15       29.83S
LITTLE FALLS   CLOUDY    63  61  94 E12G17    29.84F
LITCHFIELD     CLOUDY    70  66  88 SE9       29.85R
BUFFALO        CLOUDY    69  64  83 E6        29.86S
MAPLE LAKE     PTSUNNY   69  65  88 E9        29.86F
HUTCHINSON     CLOUDY    70  66  88 E10       29.85S
$$
MNZ037-044-045-052-053-252000-
   East Central Minnesota

CITY           SKY/WX    TMP DP  RH WIND       PRES   REMARKS
PRINCETON      CLOUDY    66  63  88 NE5       29.86R
MORA           CLOUDY    59  55  88 E5        29.90F
CAMBRIDGE      DRIZZLE   70  61  73 NE6       29.84F
RUSH CITY      CLOUDY    64  62  91 E5        29.87F
MOOSE LAKE     LGT RAIN  50  48  93 NE9G16    29.91F
HINCKLEY       LGT RAIN  63  61  94 NE8       29.90F
CLOQUET        CLOUDY    50  48  93 E15G22    29.94F FOG
MCGREGOR       CLOUDY    55  52  88 E12G20    29.91F
$$
MNZ071>073-080-081-089-090-097-098-252000-
   Southwest Minnesota

CITY           SKY/WX    TMP DP  RH WIND       PRES   REMARKS
MONTEVIDEO     CLOUDY    79  61  53 SW14G21   29.78F
GRANITE FALLS  PTSUNNY   79  62  56 S16G23    29.80F
CANBY          MOSUNNY   78  61  55 SW14      29.79F
REDWOOD FALLS  CLOUDY    77  62  59 S13       29.80F
OLIVIA         PTSUNNY   73  64  73 SE15      29.81F
PIPESTONE      PTSUNNY   72  61  68 SW14      29.83S
WINDOM         MOSUNNY   77  61  57 SW13      29.82F
WORTHINGTON    CLOUDY    74  62  66 S20       29.84F
JACKSON        MOSUNNY   77  57  50 SW14G20   29.83F
TRACY          PTSUNNY   77  62  58 S13       29.81F
SLAYTON        PTSUNNY   75  59  58 S13G20    29.83S
$$
MNZ065>067-074>077-082>085-091>093-252000-
   South Central Minnesota

CITY           SKY/WX    TMP DP  RH WIND       PRES   REMARKS
MANKATO        CLOUDY    75  63  64 SE9       29.83F
NEW ULM        PTSUNNY   75  64  69 SE10G20   29.82F
ST JAMES       MOSUNNY   73  57  56 SE14      29.82F
FAIRMONT       CLOUDY    75  52  43 S10G18    29.83S
GLENCOE        CLOUDY    72  68  88 E10       29.84S
FARIBAULT      PTSUNNY   73  66  78 E9        29.84F
OWATONNA       CLOUDY    73  66  78 E18       29.84R
WASECA         CLOUDY    72  63  73 SE9       29.84F
ALBERT LEA     CLOUDY    66  66 100 S7        29.84F
$$
MNZ078>079-086>088-094>096-252000-
   Southeast Minnesota

CITY           SKY/WX    TMP DP  RH WIND       PRES   REMARKS
ROCHESTER      LGT RAIN  66  64  93 SW8       29.87S FOG
RED WING       PTSUNNY   70  64  83 E3        29.85S
STANTON        CLOUDY    73  66  79 SE8       29.83S
DODGE CENTER   RAIN      63  61  94 S12G18    29.86S
WINONA         RAIN      70  66  88 CALM      29.87F
AUSTIN         CLOUDY    70  63  78 S12G18    29.85F
PRESTON        CLOUDY    66  63  90 SE8       29.87F
$$
ABBREVIATIONS USED IN REMARKS
   TC - TEMPERATURES IN CELSIUS
  WCI - WIND CHILL INDEX
   HX - HEAT INDEX
  VSB - VISIBILITY
$$




USA.gov is the U.S. government's official web portal to all federal, state and local government web resources and services.